Weather History for Pian Rosa, Italy

Change the Weather History Date:

Saturday, April 6, 2013

  Actual Average Record
Temperature  
Mean Temperature 17 °F -  
Max Temperature 23 °F 23 °F 33 °F (1999)
Min Temperature 11 °F 12 °F 6 °F (2004)
Degree Days  
Heating Degree Days 48    
Moisture  
Dew Point 12 °F    
Average Humidity 83    
Maximum Humidity 100    
Minimum Humidity 66    
Precipitation  
Precipitation 0.00 in - - ()
Sea Level Pressure  
Sea Level Pressure 29.71 in    
Wind  
Wind Speed 4 mph ()    
Max Wind Speed 9 mph    
Max Gust Speed -    
Visibility 1.3 miles    
Events Fog    
Averages and records for this station are not official NWS values.
T = Trace of Precipitation, MM = Missing Value Source: Averaged Metar Reports

Daily Weather History Graph

Daily Weather History Graph

Search for Another Location

Airport:

Trip Planner

Search our weather history database for the weather conditions in past years. The results will help you decide how hot, cold, wet, or windy it might be!

Date:

Astronomy

Apr. 06, 2013 Rise Set
Actual Time 6:59 AM CEST 8:04 PM CEST
Civil Twilight 6:29 AM CEST 8:34 PM CEST
Nautical Twilight 5:52 AM CEST 9:11 PM CEST
Astronomical Twilight 5:14 AM CEST 9:50 PM CEST
Moon 4:46 AM CEST (4/6) 4:04 PM CEST (4/6)
Length of Visible Light 14h 05m
Length of Day
13h 04m
Waning Crescent, 17% of the Moon is Illuminated
Apr 6
Waning Crescent
Apr 10
New
Apr 18
First Quarter
Apr 25
Full
May 2
Last Quarter

Hourly Weather History & Observations

Time (CEST) Temp. Windchill Dew Point Humidity Pressure Visibility Wind Dir Wind Speed Gust Speed Precip Events Conditions
12:55 AM 12.2 °F - 10.4 °F 92% 29.62 in 6.2 mi ENE 2.3 mph - N/A   Partly Cloudy
1:55 AM 12.2 °F - 10.4 °F 92% 29.62 in - South 2.3 mph - N/A   Clear
2:00 AM 11 °F - 11 °F 100%  in 6 mi South 2.3 mph - -   Partly Cloudy
2:55 AM 12.2 °F 2.9 °F 8.6 °F 85% 29.62 in - SSW 5.8 mph - N/A   Clear
3:55 AM 12.2 °F 0.7 °F 8.6 °F 85% 29.62 in - South 8.1 mph - N/A   Clear
4:55 AM 12.2 °F 4.3 °F 8.6 °F 85% 29.62 in - SSW 4.6 mph - N/A   Clear
5:00 AM 13 °F - 8 °F 72%  in 6 mi SSW 4.6 mph - -  
5:55 AM 12.2 °F 2.9 °F 6.8 °F 79% 29.62 in - SSW 5.8 mph - N/A   Clear
6:55 AM 12.2 °F 1.7 °F 6.8 °F 79% 29.62 in 6.2 mi SSW 6.9 mph - N/A   Scattered Clouds
7:55 AM 12.2 °F 2.9 °F 6.8 °F 79% 29.65 in - SSW 5.8 mph - N/A   Clear
8:00 AM 13 °F - 7 °F 66%  in 47 mi SSW 5.8 mph - -   Clear
8:55 AM 15.8 °F 4.2 °F 10.4 °F 79% 29.68 in - SSW 9.2 mph - N/A   Clear
9:55 AM 17.6 °F 10.7 °F 12.2 °F 79% 29.68 in - SSW 4.6 mph - N/A   Clear
10:55 AM 17.6 °F 9.3 °F 12.2 °F 79% 29.68 in 0.5 mi SW 5.8 mph - N/A Fog Light Freezing Fog
11:00 AM 17 °F - 13 °F 76%  in 0 mi SW 5.8 mph - - Fog Heavy Fog
11:55 AM 19.4 °F 12.8 °F 12.2 °F 74% 29.71 in - South 4.6 mph - N/A   Clear
12:55 PM 19.4 °F 14.3 °F 14.0 °F 80% 29.71 in - SSW 3.5 mph - N/A   Clear
1:55 PM 19.4 °F 11.5 °F 14.0 °F 80% 29.74 in 0.2 mi SSW 5.8 mph - N/A Fog Light Freezing Fog
2:00 PM 20 °F - 14 °F 70%  in 0 mi SSW 5.8 mph - - Fog Heavy Fog
2:55 PM 23.0 °F 17.0 °F 15.8 °F 74% 29.74 in 0.1 mi SW 4.6 mph - N/A Fog Light Freezing Fog
3:55 PM 23.0 °F 18.4 °F 15.8 °F 74% 29.74 in 0.1 mi Variable 3.5 mph - N/A Fog Light Freezing Fog
4:55 PM 21.2 °F 16.4 °F 15.8 °F 80% 29.74 in 0.1 mi Variable 3.5 mph - N/A Fog Light Freezing Fog
5:00 PM 21 °F - 15 °F 69%  in 0 mi 3.5 mph - - Fog Heavy Fog
6:55 PM 15.8 °F 6.1 °F 10.4 °F 79% 29.77 in 0.5 mi NE 6.9 mph - N/A Fog Light Freezing Fog
7:55 PM 14.0 °F 5.1 °F 12.2 °F 93% 29.77 in 0.1 mi East 5.8 mph - N/A Fog Light Freezing Fog
8:00 PM 14 °F - 12 °F 88%  in 0 mi East 5.8 mph - - Fog Heavy Fog
8:55 PM 14.0 °F 8.2 °F 12.2 °F 93% 29.80 in 0.5 mi Variable 3.5 mph - N/A Fog Light Freezing Fog
9:55 PM 14.0 °F 6.5 °F 14.0 °F 100% 29.83 in 0.1 mi NE 4.6 mph - N/A Fog Light Freezing Fog
10:55 PM 14.0 °F - 14.0 °F 100% 29.83 in 0.1 mi Variable 2.3 mph - N/A Fog Light Freezing Fog
11:00 PM 14 °F - 14 °F 100%  in 0 mi 2.3 mph - - Fog Heavy Fog
11:55 PM 14.0 °F - 12.2 °F 93% 29.83 in 0.1 mi Calm Calm - N/A Fog Light Freezing Fog